Location: Bailleul
(50.3375°N, 2.8513°E)
Time: 13:17:09
(UTC+00:00)

CENTAUR R/B - Pass Details

Date: 16 June 2021
Orbit: 740 x 1447 km, 63.4° (Epoch: 17 July)

Event Time Altitude Azimuth Distance (km) Brightness Sun altitude
Rises 21:57:29 0° 250° (WSW) 3,526 5.5 -12.2°
Reaches altitude 10° 21:59:56 10° 256° (WSW) 2,677 5.0 -12.4°
Maximum altitude 22:06:01 47° 330° (NNW) 1,404 3.9 -12.8°
Drops below altitude 10° 22:13:17 10° 43° (NE) 3,185 5.5 -13.3°
Sets 22:16:27 0° 49° (NE) 4,257 6.1 -13.5°
